Flag for Japan Weather past 2 weeks in Sapporo, Japan

Now
34 °F

Chilly.


Feels Like: 24 °F
Forecast: 30 / 38 °F
Wind: 16 mph from South

Location: Sapporo

Current Time: Mar 6, 2015 at 11:46:41 PM

Latest Report: Mar 6, 2015 at 11:00 PM


Visibility: N/A

Pressure: 30.30 "Hg

Humidity: 73%

Dew point: 26 °F

Location of SapporoLocation

Historic Weather in Sapporo — Graph

°F

Sapporo temperature yesterday

Maximum temperature yesterday: 36 °F (at 1:00 PM)
Minimum temperature yesterday: 31 °F (at 2:00 AM)
Average temperature yesterday: 34 °F

Past Weeks' High & Low Weather Summary

 TemperatureHumidityPressure
High45 °F (Feb 23, 11:00 AM)96% (Mar 2, 2:00 AM)30.37 "Hg (Mar 2, 2:00 AM)
Low24 °F (Mar 1, 5:00 AM)34% (Feb 23, 1:00 PM)29.32 "Hg (Feb 27, 1:00 PM)
Average34 °F71%29.97 "Hg
* Reported Feb 19 10:00 PM — Mar 6 10:00 PM, Sapporo, Weather by CustomWeather, © 2015

Note: Actual official high and low records may vary slightly from our data, if they occured in-between our weather recording intervals... More about our weather records

Advertising

Sapporo weather history for previous 24 hours

 ConditionsComfort  
Time TempWeatherWind HumidityBarometerVisibility
10:00 PM
Fri, Mar 6
34 °FChilly.3 mph76%30.30 "HgN/A
9:00 PM34 °FPassing clouds.3 mph81%30.29 "Hg6 mi
8:00 PM35 °FChilly.6 mph81%30.29 "HgN/A
7:00 PM35 °FChilly.2 mph83%30.29 "HgN/A
6:00 PM35 °FPassing clouds.3 mph84%30.29 "Hg9 mi
5:00 PM36 °FChilly.7 mph81%30.28 "HgN/A
4:00 PM38 °FChilly.3 mph67%30.27 "HgN/A
3:00 PM39 °FOvercast.7 mph56%30.27 "Hg6 mi
2:00 PM40 °FChilly.8 mph56%30.26 "HgN/A
1:00 PM40 °FQuite cool.6 mph52%30.26 "HgN/A
11:00 AM39 °FChilly.6 mph53%30.28 "HgN/A
10:00 AM37 °FChilly.5 mph63%30.29 "HgN/A
9:00 AM34 °FPassing clouds.6 mph61%30.30 "Hg12 mi
8:00 AM30 °FChilly.3 mph71%30.30 "HgN/A
7:00 AM28 °FChilly.2 mph80%30.28 "HgN/A
6:00 AM29 °FPassing clouds.3 mph88%30.26 "Hg9 mi
5:00 AM31 °FChilly.1 mph92%30.25 "HgN/A
3:00 AM31 °FSnow flurries. Overcast.2 mph89%30.22 "Hg1 mi
2:00 AM31 °FChilly.3 mph90%30.21 "HgN/A
1:00 AM32 °FChilly.2 mph89%30.20 "HgN/A
12:00 AM32 °FChilly.2 mph89%30.19 "HgN/A
11:00 PM
Thu, Mar 5
33 °FChilly.2 mph84%30.18 "HgN/A
Weather by CustomWeather, © 2015

See weather overviewHow to use our weather pages